Zurück zum Katalog

QB50P2

AktivWissenschaftPO
NORAD 40032·PAYLOAD·🇧🇪 Belgium

Gestartet Jun 19, 2014 von Dombarovsky

Loading…

Nächste Überflüge (nächste 24 Stunden)

TLE

AktuellSource: Space-Track

Epoche: Sep 13, 2026, 13:32 UTC

1 40032U 14033Y   26256.56424095  .00005612  00000-0  29456-3 0  9999
2 40032  98.0801 259.0437 0006062 224.1911 135.8836 15.16169190666057

Verfolge QB50P2 in Echtzeit mit AllMySat

Download on the App Store